• In Netherlands
  • List of Countries
  • For 7 days
  • Water Temperature
  • Satellite Maps
  • Weather Map
  • Weather Widgets
  • user-avatar
    Login

    Hourly Weather Herāt

    Today, 29 March, Wednesday

    Time Temperature Precipitation Wind Pressure Humidity
    00:00 +18°C° 0 mm 3 mps 680 mmHg 56%
    01:00 +17°C° 0 mm 3 mps 679 mmHg 56%
    02:00 +17°C° 0 mm 3 mps 679 mmHg 55%
    03:00 +17°C° 0 mm 3 mps 679 mmHg 54%
    04:00 +17°C° 0 mm 3 mps 679 mmHg 54%
    05:00 +17°C° 0 mm 3 mps 679 mmHg 53%
    06:00 +17°C° 0 mm 3 mps 679 mmHg 52%
    07:00 +18°C° 0 mm 2 mps 679 mmHg 51%
    08:00 +20°C° 0 mm 3 mps 679 mmHg 46%
    09:00 +21°C° 0 mm 3 mps 680 mmHg 40%
    10:00 +23°C° 0 mm 4 mps 680 mmHg 37%
    11:00 +25°C° 0 mm 5 mps 680 mmHg 36%
    12:00 +26°C° 0 mm 5 mps 679 mmHg 35%
    13:00 +26°C° 0 mm 6 mps 679 mmHg 34%
    14:00 +26°C° 0.3 mm 6 mps 679 mmHg 35%
    15:00 +26°C° 0.3 mm 6 mps 678 mmHg 36%
    16:00 +26°C° 0.3 mm 6 mps 678 mmHg 37%
    17:00 +23°C° 2.1 mm 5 mps 678 mmHg 49%
    18:00 +21°C° 2.1 mm 5 mps 678 mmHg 60%
    19:00 +19°C° 2.1 mm 4 mps 677 mmHg 71%
    20:00 +18°C° 2.1 mm 4 mps 678 mmHg 73%
    21:00 +18°C° 2.1 mm 4 mps 679 mmHg 74%
    22:00 +18°C° 2.1 mm 4 mps 679 mmHg 76%
    23:00 +17°C° 0.9 mm 4 mps 679 mmHg 78%

    Tomorrow, 30 March, Thursday

    Time Temperature Precipitation Wind Pressure Humidity
    00:00 +15°C° 0.9 mm 4 mps 680 mmHg 79%
    01:00 +15°C° 0.9 mm 5 mps 680 mmHg 81%
    02:00 +14°C° 0.1 mm 5 mps 680 mmHg 81%
    03:00 +14°C° 0.1 mm 5 mps 680 mmHg 81%
    04:00 +13°C° 0.1 mm 6 mps 681 mmHg 81%
    05:00 +13°C° 0 mm 6 mps 681 mmHg 79%
    06:00 +13°C° 0 mm 6 mps 682 mmHg 77%
    07:00 +12°C° 0 mm 7 mps 683 mmHg 74%
    08:00 +14°C° 0 mm 7 mps 683 mmHg 70%
    09:00 +13°C° 0 mm 8 mps 683 mmHg 67%
    10:00 +15°C° 0 mm 8 mps 684 mmHg 63%
    11:00 +16°C° 0 mm 8 mps 684 mmHg 60%
    12:00 +16°C° 0 mm 8 mps 683 mmHg 57%
    13:00 +17°C° 0 mm 8 mps 683 mmHg 54%
    14:00 +17°C° 0 mm 8 mps 683 mmHg 54%
    15:00 +17°C° 0 mm 8 mps 682 mmHg 54%
    16:00 +17°C° 0 mm 8 mps 682 mmHg 54%
    17:00 +16°C° 0 mm 7 mps 682 mmHg 58%
    18:00 +15°C° 0 mm 6 mps 682 mmHg 61%
    19:00 +14°C° 0 mm 6 mps 681 mmHg 65%
    20:00 +13°C° 0 mm 5 mps 681 mmHg 67%
    21:00 +13°C° 0 mm 4 mps 681 mmHg 68%
    22:00 +12°C° 0 mm 3 mps 681 mmHg 70%
    23:00 +13°C° 0 mm 2 mps 681 mmHg 71%

    Day after tomorrow, 31 March, Friday

    Time Temperature Precipitation Wind Pressure Humidity
    00:00 +12°C° 0 mm 2 mps 681 mmHg 72%
    01:00 +12°C° 0 mm 1 mps 680 mmHg 72%
    02:00 +12°C° 0 mm 1 mps 680 mmHg 73%
    03:00 +11°C° 0 mm 1 mps 680 mmHg 73%
    04:00 +11°C° 0 mm 1 mps 679 mmHg 73%
    05:00 +12°C° 0 mm 1 mps 680 mmHg 70%
    06:00 +13°C° 0 mm 1 mps 680 mmHg 67%
    07:00 +14°C° 0 mm 1 mps 680 mmHg 63%
    08:00 +15°C° 0 mm 1 mps 681 mmHg 55%
    09:00 +18°C° 0 mm 1 mps 681 mmHg 47%
    10:00 +19°C° 0 mm 2 mps 681 mmHg 38%
    11:00 +20°C° 0 mm 2 mps 681 mmHg 35%
    12:00 +21°C° 0 mm 3 mps 681 mmHg 31%
    13:00 +23°C° 0 mm 4 mps 681 mmHg 28%
    14:00 +24°C° 0 mm 3 mps 681 mmHg 27%
    15:00 +24°C° 0 mm 3 mps 681 mmHg 26%
    16:00 +24°C° 0 mm 3 mps 680 mmHg 26%
    17:00 +23°C° 0 mm 2 mps 680 mmHg 31%
    18:00 +20°C° 0 mm 2 mps 681 mmHg 35%
    19:00 +19°C° 0 mm 2 mps 681 mmHg 40%
    20:00 +19°C° 0 mm 2 mps 681 mmHg 40%
    21:00 +18°C° 0 mm 2 mps 681 mmHg 40%
    22:00 +18°C° 0 mm 2 mps 682 mmHg 40%
    23:00 +18°C° 0 mm 2 mps 682 mmHg 40%

    1 April, Saturday

    Time Temperature Precipitation Wind Pressure Humidity
    00:00 +17°C° 0 mm 2 mps 682 mmHg 41%
    01:00 +17°C° 0 mm 2 mps 681 mmHg 41%
    02:00 +16°C° 0 mm 2 mps 681 mmHg 42%
    03:00 +16°C° 0 mm 3 mps 681 mmHg 43%
    04:00 +16°C° 0 mm 3 mps 680 mmHg 44%
    05:00 +16°C° 0 mm 3 mps 681 mmHg 44%
    06:00 +16°C° 0 mm 3 mps 681 mmHg 45%
    07:00 +17°C° 0 mm 2 mps 681 mmHg 46%
    08:00 +19°C° 0 mm 2 mps 682 mmHg 40%
    09:00 +21°C° 0 mm 2 mps 682 mmHg 35%
    10:00 +24°C° 0 mm 2 mps 683 mmHg 30%
    11:00 +25°C° 0 mm 2 mps 682 mmHg 28%
    12:00 +25°C° 0 mm 2 mps 682 mmHg 27%
    13:00 +26°C° 0 mm 2 mps 681 mmHg 25%
    14:00 +26°C° 0 mm 2 mps 681 mmHg 25%
    15:00 +27°C° 0 mm 2 mps 680 mmHg 25%
    16:00 +27°C° 0 mm 2 mps 679 mmHg 25%
    17:00 +25°C° 0 mm 2 mps 679 mmHg 29%
    18:00 +24°C° 0 mm 2 mps 679 mmHg 34%
    19:00 +23°C° 0 mm 2 mps 679 mmHg 38%
    20:00 +21°C° 0 mm 2 mps 679 mmHg 40%
    21:00 +20°C° 0 mm 3 mps 679 mmHg 42%
    22:00 +19°C° 0 mm 3 mps 679 mmHg 44%
    23:00 +19°C° 0 mm 3 mps 679 mmHg 45%

    2 April, Sunday

    Time Temperature Precipitation Wind Pressure Humidity
    00:00 +18°C° 0 mm 3 mps 679 mmHg 47%
    01:00 +17°C° 0 mm 3 mps 679 mmHg 49%
    02:00 +17°C° 0 mm 3 mps 678 mmHg 49%
    03:00 +17°C° 0 mm 2 mps 678 mmHg 49%
    04:00 +16°C° 0 mm 2 mps 678 mmHg 49%
    05:00 +17°C° 0 mm 2 mps 678 mmHg 49%
    06:00 +17°C° 0 mm 2 mps 679 mmHg 49%
    07:00 +17°C° 0 mm 2 mps 679 mmHg 49%
    08:00 +19°C° 0 mm 3 mps 679 mmHg 45%
    09:00 +21°C° 0 mm 3 mps 679 mmHg 41%
    10:00 +22°C° 0 mm 3 mps 680 mmHg 36%
    11:00 +23°C° 0.1 mm 4 mps 679 mmHg 37%
    12:00 +23°C° 0.1 mm 4 mps 679 mmHg 38%
    13:00 +25°C° 0.1 mm 5 mps 678 mmHg 38%
    14:00 +23°C° 0.5 mm 5 mps 678 mmHg 41%
    15:00 +23°C° 0.5 mm 5 mps 677 mmHg 43%
    16:00 +23°C° 0.5 mm 4 mps 677 mmHg 45%
    17:00 +21°C° 0.4 mm 4 mps 677 mmHg 52%
    18:00 +20°C° 0.4 mm 4 mps 677 mmHg 58%
    19:00 +18°C° 0.4 mm 3 mps 677 mmHg 65%
    20:00 +17°C° 0.1 mm 4 mps 677 mmHg 67%
    21:00 +15°C° 0.1 mm 5 mps 678 mmHg 70%
    22:00 +14°C° 0.1 mm 6 mps 678 mmHg 73%
    23:00 +13°C° 0 mm 6 mps 678 mmHg 74%

    3 April, Monday

    Time Temperature Precipitation Wind Pressure Humidity
    00:00 +13°C° 0 mm 6 mps 678 mmHg 75%
    01:00 +11°C° 0 mm 6 mps 678 mmHg 76%
    02:00 +11°C° 0 mm 6 mps 678 mmHg 76%
    03:00 +10°C° 0 mm 6 mps 678 mmHg 76%
    04:00 +10°C° 0 mm 6 mps 678 mmHg 77%
    05:00 +10°C° 0.2 mm 6 mps 678 mmHg 77%
    06:00 +10°C° 0.2 mm 6 mps 679 mmHg 77%
    07:00 +9°C° 0.2 mm 7 mps 679 mmHg 78%
    08:00 +10°C° 0.3 mm 7 mps 680 mmHg 75%
    09:00 +10°C° 0.3 mm 7 mps 680 mmHg 72%
    10:00 +11°C° 0.3 mm 7 mps 680 mmHg 69%
    11:00 +12°C° 0 mm 8 mps 680 mmHg 65%
    12:00 +12°C° 0 mm 8 mps 680 mmHg 61%
    13:00 +13°C° 0 mm 9 mps 680 mmHg 58%
    14:00 +13°C° 0 mm 9 mps 679 mmHg 59%
    15:00 +12°C° 0 mm 9 mps 679 mmHg 60%
    16:00 +12°C° 0 mm 9 mps 679 mmHg 61%
    17:00 +11°C° 0 mm 9 mps 679 mmHg 64%
    18:00 +9°C° 0 mm 8 mps 679 mmHg 67%
    19:00 +7°C° 0 mm 8 mps 679 mmHg 70%
    20:00 +7°C° 0 mm 8 mps 679 mmHg 69%
    21:00 +8°C° 0 mm 7 mps 679 mmHg 69%
    22:00 +6°C° 0 mm 7 mps 680 mmHg 69%
    23:00 +6°C° 0 mm 7 mps 679 mmHg 68%
    Show more